CDT,Max TemperatureF,Mean TemperatureF,Min TemperatureF,Max Dew PointF,MeanDew PointF,Min DewpointF,Max Humidity, Mean Humidity, Min Humidity, Max Sea Level PressureIn, Mean Sea Level PressureIn, Min Sea Level PressureIn, Max VisibilityMiles, Mean VisibilityMiles, Min VisibilityMiles, Max Wind SpeedMPH, Mean Wind SpeedMPH, Max Gust SpeedMPH,PrecipitationIn, CloudCover, Events, WindDirDegrees
2012-10-1,68,54,41,46,40,36,87,60,33,29.96,29.90,29.85,10,9,3,8,5,,0.00,0,,66
2012-10-2,73,56,39,46,40,36,87,58,29,29.94,29.90,29.86,10,9,1,12,6,,0.00,0,,46
2012-10-3,73,57,41,52,44,36,93,66,29,30.03,29.98,29.94,10,10,5,17,6,17,0.00,0,,99
2012-10-4,64,50,37,54,43,30,88,71,45,30.20,30.09,30.01,10,10,9,21,9,28,0.00,1,Thunderstorm,240
2012-10-5,50,39,28,32,25,19,81,58,32,30.24,30.19,30.14,10,10,8,18,9,26,0.00,0,,291
2012-10-6,46,35,24,27,23,18,80,61,46,30.25,30.22,30.16,10,10,9,17,9,22,0.00,4,,305
2012-10-7,51,42,33,25,19,16,65,47,24,30.25,30.20,30.14,10,10,10,14,6,18,0.00,4,,278
2012-10-8,51,37,32,30,24,21,75,66,44,30.14,30.05,29.95,10,10,10,25,11,34,0.00,0,,194
2012-10-9,55,48,46,36,34,34,62,59,47,29.99,29.91,29.84,10,10,7,25,14,33,0.07,2,,243
2012-10-10,53,42,30,30,26,23,86,54,33,30.21,30.14,30.00,10,10,10,21,10,25,0.03,0,,277
2012-10-11,69,51,33,39,32,27,81,53,28,30.32,30.14,30.06,10,10,7,25,11,30,0.01,0,,253
2012-10-12,55,42,30,36,25,19,81,49,26,30.48,30.37,30.23,10,10,9,15,10,18,0.00,1,,90
2012-10-13,66,55,44,63,51,34,94,84,62,30.23,29.95,29.76,10,8,3,17,11,21,0.60,2,,177
2012-10-14,64,52,39,61,52,37,94,86,76,29.89,29.66,29.46,10,8,0,26,10,38,0.87,5,,238
2012-10-15,62,48,35,45,38,34,93,72,42,30.00,29.95,29.88,10,9,6,15,7,18,0.00,0,,280
2012-10-16,73,58,44,52,46,37,81,61,43,29.94,29.66,29.49,10,10,9,25,11,30,0.00,0,,167
2012-10-17,66,56,46,55,47,39,88,70,52,29.51,29.44,29.37,10,10,4,21,11,29,0.33,3,,219
2012-10-18,48,45,42,41,38,36,87,78,66,29.43,29.40,29.37,10,10,6,22,14,30,0.16,7,,236
2012-10-19,53,46,39,43,40,36,93,82,54,29.73,29.55,29.41,10,8,2,15,7,18,0.04,6,,295
2012-10-20,53,43,33,45,37,32,100,83,54,29.95,29.85,29.73,10,5,0,10,6,,0.00,4,,253
2012-10-21,69,52,35,50,43,32,93,74,46,29.98,29.95,29.91,10,9,3,16,8,21,0.00,0,,124
2012-10-22,64,58,51,63,57,48,94,90,82,29.95,29.91,29.87,10,4,1,14,6,,0.60,5,Thunderstorm,97
2012-10-23,71,66,60,64,60,57,94,85,69,29.91,29.87,29.83,10,7,0,14,9,20,0.05,4,,151
2012-10-24,80,70,60,64,61,57,88,76,57,29.91,29.85,29.77,10,10,10,23,10,29,0.00,2,,172
2012-10-25,71,54,37,61,48,28,87,76,65,30.18,29.83,29.64,10,10,4,28,17,36,0.19,5,Thunderstorm,249
2012-10-26,48,38,28,30,26,25,86,64,43,30.39,30.34,30.19,10,10,10,20,11,23,0.00,1,,321
2012-10-27,44,34,24,30,23,21,86,67,39,30.41,30.35,30.30,10,10,10,13,7,21,0.00,0,,356
2012-10-28,50,37,24,28,24,19,86,66,40,30.36,30.33,30.30,10,10,7,15,7,18,0.00,0,,27
2012-10-29,51,38,24,30,23,19,93,61,30,30.38,30.30,30.18,10,10,2,13,7,,0.00,0,,14
2012-10-30,51,40,28,27,22,19,80,54,28,30.18,30.01,29.92,10,10,10,23,12,29,0.00,0,,346
2012-10-31,51,38,24,25,19,12,80,56,21,29.97,29.94,29.91,10,10,7,17,9,23,0.00,0,,319